Precipitable_Water
0.44 0.43 0.42 0.41 0.40 0.39 0.37 0.36 0.36 0.35 0.35 0.25 0.23 0.27 0.16 0.14 0.11 0.20 0.29 0.30 0.27 0.20 0.16 0.18 0.16 0.15 0.18 0.22 0.20 0.22 0.21 0.19 0.21 0.21 0.24 0.22 0.23 0.22 0.21 0.20 0.18 0.20 0.18 0.18 0.16 0.16 0.13 0.13 0.12 0.13 0.14 0.16 0.19 0.23 0.23 0.23 0.21 0.20 0.19 0.20 0.24 0.28 0.18 0.15 0.16 0.19 0.21 0.25 0.26 0.28 0.29 0.28 0.25 0.25 0.26 0.24 0.21 0.22 0.21 0.20 0.22 0.19 0.20 0.19 0.19 0.16 0.19
0.44 0.44 0.43 0.42 0.41 0.40 0.39 0.37 0.36 0.36 0.37 0.31 0.29 0.20 0.16 0.16 0.16 0.16 0.27 0.28 0.27 0.20 0.12 0.12 0.14 0.16 0.18 0.18 0.17 0.21 0.19 0.18 0.17 0.18 0.20 0.18 0.18 0.17 0.17 0.18 0.19 0.16 0.19 0.17 0.14 0.16 0.11 0.15 0.13 0.13 0.16 0.16 0.24 0.23 0.23 0.25 0.21 0.21 0.22 0.17 0.25 0.15 0.19 0.16 0.13 0.13 0.14 0.16 0.19 0.20 0.23 0.23 0.21 0.20 0.22 0.23 0.24 0.23 0.23 0.22 0.24 0.17 0.18 0.18 0.16 0.12 0.17
0.44 0.43 0.43 0.42 0.41 0.40 0.39 0.37 0.36 0.36 0.37 0.37 0.30 0.18 0.20 0.18 0.21 0.23 0.22 0.25 0.20 0.14 0.17 0.15 0.14 0.14 0.14 0.15 0.13 0.15 0.17 0.19 0.19 0.18 0.17 0.19 0.18 0.17 0.16 0.17 0.18 0.17 0.19 0.17 0.17 0.17 0.14 0.13 0.18 0.17 0.18 0.18 0.24 0.25 0.25 0.28 0.25 0.29 0.29 0.27 0.26 0.18 0.19 0.17 0.12 0.10 0.08 0.08 0.09 0.10 0.12 0.15 0.19 0.20 0.20 0.20 0.19 0.19 0.18 0.15 0.17 0.14 0.17 0.17 0.14 0.13 0.19
0.43 0.42 0.42 0.41 0.40 0.39 0.38 0.36 0.35 0.34 0.35 0.36 0.29 0.25 0.17 0.16 0.09 0.15 0.17 0.20 0.20 0.21 0.25 0.20 0.16 0.14 0.14 0.12 0.14 0.17 0.14 0.19 0.23 0.22 0.19 0.20 0.20 0.19 0.19 0.20 0.20 0.18 0.17 0.15 0.16 0.16 0.20 0.16 0.16 0.18 0.18 0.21 0.24 0.25 0.27 0.27 0.28 0.30 0.30 0.29 0.27 0.21 0.22 0.20 0.18 0.16 0.14 0.16 0.18 0.20 0.20 0.19 0.16 0.18 0.18 0.18 0.20 0.20 0.18 0.17 0.14 0.12 0.14 0.13 0.15 0.16 0.17
0.43 0.42 0.42 0.41 0.41 0.40 0.39 0.37 0.35 0.34 0.34 0.35 0.29 0.26 0.20 0.23 0.14 0.16 0.12 0.18 0.20 0.18 0.21 0.20 0.19 0.14 0.19 0.12 0.17 0.15 0.17 0.20 0.20 0.25 0.19 0.23 0.22 0.22 0.22 0.21 0.19 0.20 0.19 0.18 0.18 0.20 0.19 0.23 0.20 0.20 0.20 0.23 0.25 0.28 0.28 0.28 0.30 0.31 0.29 0.32 0.28 0.23 0.20 0.22 0.21 0.21 0.21 0.23 0.22 0.23 0.22 0.19 0.19 0.18 0.18 0.19 0.19 0.19 0.17 0.15 0.13 0.17 0.15 0.11 0.14 0.17 0.15
0.44 0.43 0.42 0.42 0.42 0.41 0.39 0.38 0.36 0.35 0.35 0.35 0.32 0.18 0.22 0.14 0.20 0.24 0.26 0.16 0.13 0.15 0.17 0.22 0.20 0.21 0.21 0.17 0.22 0.17 0.17 0.18 0.16 0.23 0.24 0.24 0.25 0.19 0.22 0.22 0.23 0.22 0.21 0.21 0.18 0.20 0.20 0.21 0.19 0.24 0.24 0.23 0.26 0.25 0.29 0.28 0.30 0.31 0.29 0.32 0.27 0.23 0.19 0.22 0.22 0.22 0.23 0.24 0.24 0.25 0.24 0.23 0.22 0.21 0.21 0.20 0.21 0.20 0.18 0.17 0.19 0.19 0.15 0.12 0.15 0.17 0.16
0.46 0.45 0.45 0.44 0.44 0.43 0.41 0.40 0.38 0.37 0.36 0.36 0.26 0.18 0.23 0.23 0.23 0.24 0.31 0.19 0.22 0.21 0.23 0.23 0.21 0.19 0.22 0.22 0.21 0.18 0.17 0.17 0.19 0.20 0.20 0.21 0.21 0.23 0.18 0.21 0.23 0.24 0.25 0.22 0.20 0.21 0.18 0.18 0.25 0.24 0.24 0.25 0.25 0.24 0.26 0.31 0.31 0.29 0.28 0.28 0.29 0.24 0.20 0.22 0.22 0.21 0.22 0.23 0.23 0.24 0.23 0.23 0.22 0.22 0.22 0.22 0.22 0.21 0.21 0.20 0.21 0.20 0.18 0.18 0.18 0.19 0.18
0.48 0.47 0.46 0.46 0.46 0.45 0.44 0.43 0.41 0.39 0.38 0.36 0.27 0.27 0.21 0.20 0.19 0.18 0.26 0.24 0.23 0.25 0.24 0.22 0.21 0.18 0.23 0.18 0.22 0.20 0.19 0.18 0.20 0.22 0.20 0.18 0.20 0.26 0.21 0.22 0.25 0.25 0.26 0.25 0.23 0.24 0.25 0.24 0.22 0.28 0.26 0.25 0.27 0.25 0.25 0.25 0.30 0.29 0.26 0.26 0.28 0.23 0.19 0.25 0.22 0.19 0.19 0.21 0.23 0.23 0.23 0.22 0.20 0.21 0.22 0.22 0.22 0.22 0.22 0.21 0.21 0.21 0.20 0.19 0.20 0.19 0.18
0.53 0.52 0.50 0.49 0.48 0.47 0.46 0.46 0.45 0.42 0.41 0.30 0.29 0.29 0.33 0.33 0.35 0.33 0.23 0.17 0.22 0.23 0.23 0.21 0.20 0.18 0.21 0.19 0.22 0.22 0.21 0.20 0.23 0.23 0.27 0.24 0.23 0.25 0.24 0.26 0.26 0.28 0.27 0.26 0.26 0.28 0.28 0.28 0.29 0.29 0.28 0.24 0.29 0.25 0.25 0.29 0.24 0.26 0.25 0.26 0.26 0.24 0.20 0.22 0.20 0.16 0.15 0.19 0.19 0.20 0.22 0.21 0.20 0.19 0.20 0.20 0.20 0.19 0.19 0.19 0.20 0.20 0.18 0.19 0.19 0.17 0.16
0.53 0.52 0.52 0.51 0.51 0.51 0.49 0.48 0.48 0.45 0.45 0.35 0.34 0.28 0.38 0.38 0.41 0.39 0.32 0.20 0.26 0.22 0.25 0.25 0.21 0.19 0.24 0.25 0.26 0.25 0.27 0.29 0.28 0.24 0.30 0.31 0.31 0.30 0.29 0.29 0.28 0.27 0.27 0.26 0.28 0.31 0.31 0.31 0.32 0.32 0.31 0.31 0.30 0.29 0.28 0.27 0.23 0.22 0.22 0.24 0.21 0.21 0.20 0.18 0.18 0.15 0.13 0.18 0.18 0.18 0.18 0.17 0.14 0.14 0.18 0.19 0.20 0.21 0.22 0.23 0.23 0.22 0.22 0.19 0.17 0.16 0.20
0.51 0.51 0.50 0.50 0.50 0.50 0.50 0.50 0.50 0.49 0.45 0.37 0.35 0.34 0.37 0.34 0.32 0.34 0.35 0.23 0.26 0.29 0.26 0.25 0.24 0.28 0.29 0.30 0.29 0.31 0.30 0.31 0.31 0.24 0.25 0.30 0.29 0.32 0.32 0.29 0.27 0.26 0.26 0.28 0.34 0.35 0.34 0.35 0.34 0.34 0.32 0.30 0.29 0.29 0.28 0.27 0.26 0.24 0.22 0.21 0.22 0.21 0.20 0.18 0.19 0.14 0.13 0.17 0.17 0.18 0.15 0.10 0.09 0.16 0.18 0.19 0.17 0.18 0.17 0.17 0.19 0.21 0.22 0.20 0.21 0.21 0.23
0.50 0.49 0.49 0.48 0.48 0.48 0.49 0.49 0.48 0.48 0.46 0.43 0.43 0.37 0.40 0.41 0.39 0.33 0.27 0.20 0.21 0.28 0.24 0.22 0.24 0.26 0.25 0.27 0.28 0.26 0.26 0.27 0.28 0.31 0.28 0.29 0.29 0.30 0.30 0.29 0.27 0.23 0.30 0.34 0.34 0.34 0.35 0.35 0.33 0.33 0.31 0.30 0.28 0.27 0.26 0.24 0.24 0.26 0.25 0.21 0.19 0.19 0.19 0.17 0.19 0.15 0.13 0.16 0.16 0.13 0.09 0.08 0.16 0.19 0.20 0.21 0.20 0.20 0.18 0.18 0.19 0.20 0.22 0.22 0.21 0.22 0.23
0.48 0.48 0.47 0.47 0.46 0.45 0.46 0.47 0.47 0.46 0.45 0.42 0.39 0.32 0.38 0.40 0.32 0.27 0.25 0.20 0.17 0.20 0.18 0.21 0.25 0.24 0.25 0.24 0.23 0.24 0.26 0.27 0.28 0.28 0.29 0.28 0.27 0.29 0.30 0.29 0.27 0.29 0.34 0.32 0.32 0.31 0.27 0.25 0.26 0.26 0.25 0.25 0.25 0.24 0.23 0.23 0.22 0.23 0.23 0.23 0.20 0.18 0.17 0.17 0.16 0.16 0.16 0.13 0.13 0.08 0.07 0.15 0.18 0.20 0.22 0.25 0.22 0.22 0.19 0.17 0.20 0.22 0.22 0.22 0.21 0.23 0.26
0.47 0.47 0.46 0.45 0.44 0.44 0.44 0.44 0.44 0.44 0.44 0.41 0.36 0.35 0.37 0.36 0.28 0.26 0.24 0.19 0.17 0.23 0.23 0.21 0.23 0.22 0.24 0.24 0.24 0.25 0.26 0.25 0.27 0.28 0.25 0.28 0.26 0.26 0.29 0.30 0.29 0.32 0.32 0.32 0.29 0.26 0.22 0.22 0.19 0.19 0.19 0.20 0.20 0.18 0.20 0.22 0.22 0.21 0.20 0.21 0.22 0.20 0.19 0.18 0.14 0.17 0.11 0.12 0.12 0.11 0.15 0.15 0.16 0.17 0.21 0.23 0.19 0.21 0.19 0.14 0.18 0.25 0.26 0.26 0.26 0.28 0.31
0.46 0.46 0.45 0.44 0.43 0.43 0.43 0.42 0.43 0.44 0.43 0.41 0.38 0.36 0.35 0.37 0.36 0.31 0.30 0.25 0.17 0.20 0.23 0.17 0.21 0.23 0.25 0.25 0.26 0.24 0.24 0.25 0.25 0.25 0.29 0.30 0.27 0.28 0.29 0.30 0.31 0.32 0.33 0.29 0.25 0.25 0.21 0.20 0.16 0.15 0.16 0.15 0.13 0.14 0.19 0.17 0.21 0.21 0.21 0.21 0.22 0.22 0.17 0.19 0.15 0.15 0.16 0.13 0.12 0.12 0.12 0.10 0.14 0.22 0.30 0.33 0.32 0.30 0.30 0.24 0.20 0.26 0.28 0.29 0.27 0.26 0.29
0.45 0.44 0.44 0.44 0.43 0.42 0.42 0.42 0.42 0.44 0.44 0.41 0.37 0.35 0.36 0.38 0.39 0.37 0.30 0.24 0.20 0.14 0.21 0.26 0.27 0.26 0.24 0.24 0.26 0.23 0.21 0.22 0.22 0.23 0.23 0.24 0.26 0.28 0.29 0.30 0.29 0.30 0.28 0.26 0.25 0.22 0.21 0.17 0.15 0.15 0.13 0.14 0.18 0.16 0.14 0.18 0.16 0.21 0.22 0.22 0.22 0.23 0.23 0.21 0.17 0.15 0.16 0.15 0.12 0.11 0.10 0.12 0.21 0.25 0.30 0.34 0.36 0.34 0.33 0.23 0.19 0.27 0.30 0.31 0.30 0.28 0.30
0.44 0.44 0.44 0.43 0.43 0.42 0.41 0.41 0.42 0.43 0.44 0.41 0.34 0.34 0.32 0.40 0.36 0.31 0.28 0.25 0.21 0.15 0.24 0.28 0.28 0.27 0.23 0.21 0.24 0.23 0.25 0.22 0.24 0.20 0.19 0.21 0.23 0.25 0.28 0.29 0.29 0.28 0.26 0.23 0.23 0.20 0.18 0.17 0.18 0.17 0.17 0.19 0.15 0.14 0.18 0.16 0.15 0.15 0.20 0.21 0.20 0.19 0.20 0.20 0.17 0.16 0.16 0.15 0.14 0.12 0.15 0.15 0.25 0.29 0.32 0.36 0.38 0.38 0.32 0.17 0.18 0.28 0.32 0.33 0.33 0.32 0.31
0.45 0.44 0.43 0.43 0.42 0.41 0.41 0.40 0.41 0.41 0.42 0.42 0.37 0.32 0.32 0.38 0.37 0.35 0.29 0.23 0.17 0.15 0.25 0.29 0.25 0.22 0.20 0.22 0.21 0.24 0.27 0.25 0.24 0.25 0.21 0.22 0.22 0.23 0.23 0.23 0.20 0.24 0.26 0.19 0.21 0.19 0.18 0.17 0.15 0.15 0.14 0.20 0.20 0.20 0.13 0.17 0.14 0.15 0.15 0.16 0.16 0.16 0.16 0.18 0.15 0.16 0.17 0.17 0.16 0.17 0.18 0.25 0.29 0.29 0.32 0.33 0.36 0.33 0.20 0.15 0.22 0.32 0.32 0.34 0.34 0.35 0.35
0.46 0.44 0.43 0.42 0.42 0.41 0.41 0.40 0.39 0.40 0.40 0.40 0.37 0.34 0.33 0.36 0.36 0.34 0.27 0.23 0.18 0.12 0.21 0.26 0.28 0.25 0.29 0.29 0.25 0.25 0.26 0.24 0.23 0.19 0.18 0.17 0.20 0.25 0.24 0.22 0.24 0.17 0.23 0.19 0.20 0.18 0.17 0.17 0.22 0.19 0.16 0.18 0.20 0.15 0.19 0.16 0.15 0.19 0.19 0.15 0.15 0.16 0.16 0.16 0.17 0.15 0.15 0.17 0.15 0.16 0.19 0.27 0.32 0.32 0.32 0.35 0.27 0.19 0.18 0.26 0.32 0.32 0.31 0.33 0.33 0.32 0.33
0.46 0.44 0.44 0.43 0.42 0.41 0.41 0.40 0.40 0.41 0.41 0.40 0.37 0.29 0.32 0.36 0.36 0.34 0.27 0.20 0.22 0.17 0.23 0.25 0.28 0.23 0.30 0.23 0.22 0.22 0.24 0.25 0.25 0.21 0.19 0.15 0.24 0.23 0.18 0.15 0.21 0.21 0.19 0.21 0.15 0.20 0.16 0.15 0.18 0.20 0.18 0.18 0.20 0.23 0.19 0.19 0.22 0.19 0.18 0.20 0.16 0.16 0.14 0.13 0.13 0.15 0.16 0.15 0.13 0.13 0.11 0.27 0.34 0.32 0.30 0.29 0.21 0.22 0.27 0.29 0.30 0.32 0.30 0.30 0.30 0.31 0.32
0.47 0.45 0.44 0.43 0.42 0.41 0.41 0.41 0.40 0.42 0.41 0.41 0.38 0.30 0.27 0.34 0.34 0.35 0.35 0.29 0.22 0.16 0.21 0.31 0.31 0.30 0.28 0.25 0.28 0.29 0.27 0.22 0.24 0.21 0.24 0.22 0.27 0.22 0.13 0.14 0.18 0.19 0.16 0.17 0.14 0.17 0.19 0.17 0.19 0.18 0.22 0.20 0.21 0.20 0.16 0.17 0.18 0.23 0.21 0.19 0.18 0.22 0.14 0.13 0.15 0.18 0.12 0.12 0.11 0.12 0.18 0.24 0.30 0.27 0.21 0.24 0.26 0.28 0.28 0.28 0.28 0.30 0.30 0.29 0.29 0.30 0.31
0.47 0.46 0.45 0.44 0.43 0.42 0.41 0.41 0.41 0.41 0.41 0.40 0.38 0.33 0.25 0.30 0.33 0.34 0.35 0.32 0.24 0.20 0.21 0.27 0.29 0.27 0.29 0.33 0.34 0.33 0.31 0.30 0.32 0.33 0.26 0.24 0.28 0.24 0.22 0.23 0.22 0.21 0.22 0.23 0.18 0.17 0.20 0.19 0.19 0.16 0.15 0.17 0.20 0.16 0.18 0.14 0.13 0.18 0.22 0.20 0.13 0.22 0.18 0.19 0.15 0.19 0.15 0.13 0.15 0.20 0.23 0.24 0.26 0.27 0.27 0.27 0.28 0.28 0.27 0.28 0.28 0.29 0.28 0.29 0.28 0.27 0.29
0.49 0.47 0.46 0.44 0.43 0.43 0.43 0.42 0.41 0.41 0.41 0.40 0.38 0.32 0.27 0.29 0.32 0.37 0.35 0.25 0.29 0.30 0.31 0.29 0.32 0.33 0.35 0.36 0.38 0.37 0.36 0.38 0.36 0.35 0.34 0.27 0.24 0.27 0.24 0.22 0.22 0.27 0.26 0.25 0.19 0.18 0.18 0.18 0.15 0.18 0.16 0.17 0.15 0.14 0.16 0.15 0.13 0.15 0.13 0.19 0.17 0.20 0.20 0.22 0.18 0.16 0.20 0.20 0.20 0.21 0.21 0.22 0.23 0.26 0.26 0.25 0.25 0.26 0.26 0.25 0.25 0.27 0.27 0.27 0.26 0.27 0.27
0.50 0.49 0.46 0.44 0.43 0.42 0.43 0.42 0.40 0.40 0.39 0.39 0.38 0.33 0.30 0.34 0.36 0.35 0.32 0.31 0.25 0.20 0.23 0.27 0.24 0.22 0.23 0.24 0.30 0.35 0.36 0.36 0.35 0.35 0.37 0.34 0.23 0.22 0.26 0.27 0.27 0.26 0.26 0.27 0.28 0.21 0.21 0.20 0.18 0.21 0.13 0.16 0.18 0.14 0.12 0.11 0.13 0.16 0.16 0.15 0.17 0.18 0.20 0.18 0.15 0.19 0.16 0.12 0.18 0.18 0.19 0.21 0.21 0.22 0.24 0.25 0.25 0.24 0.24 0.24 0.24 0.25 0.25 0.25 0.26 0.25 0.25
0.51 0.49 0.48 0.45 0.43 0.42 0.41 0.41 0.40 0.41 0.41 0.41 0.40 0.40 0.39 0.36 0.38 0.36 0.28 0.20 0.21 0.20 0.14 0.19 0.22 0.27 0.29 0.31 0.32 0.30 0.33 0.35 0.37 0.35 0.35 0.34 0.30 0.24 0.22 0.27 0.29 0.24 0.22 0.26 0.30 0.25 0.24 0.18 0.19 0.18 0.13 0.18 0.19 0.13 0.19 0.15 0.14 0.20 0.14 0.15 0.16 0.14 0.24 0.17 0.18 0.18 0.15 0.14 0.18 0.19 0.19 0.20 0.21 0.22 0.21 0.21 0.22 0.24 0.25 0.26 0.25 0.25 0.26 0.26 0.25 0.25 0.24
0.52 0.50 0.48 0.46 0.44 0.42 0.41 0.40 0.41 0.42 0.43 0.43 0.43 0.38 0.35 0.35 0.40 0.40 0.35 0.32 0.31 0.28 0.15 0.12 0.19 0.28 0.28 0.25 0.23 0.27 0.32 0.34 0.34 0.34 0.33 0.33 0.33 0.31 0.29 0.30 0.28 0.32 0.29 0.29 0.28 0.23 0.22 0.20 0.20 0.19 0.16 0.16 0.23 0.17 0.16 0.19 0.18 0.21 0.18 0.15 0.19 0.21 0.23 0.16 0.19 0.17 0.19 0.21 0.21 0.20 0.21 0.21 0.20 0.21 0.23 0.24 0.24 0.24 0.25 0.26 0.26 0.26 0.25 0.25 0.26 0.27 0.26
0.51 0.50 0.49 0.47 0.44 0.42 0.41 0.41 0.43 0.44 0.44 0.45 0.44 0.43 0.41 0.40 0.42 0.37 0.32 0.29 0.22 0.18 0.16 0.14 0.18 0.21 0.25 0.22 0.26 0.29 0.30 0.30 0.29 0.29 0.29 0.30 0.29 0.30 0.29 0.27 0.25 0.26 0.26 0.26 0.28 0.25 0.24 0.21 0.20 0.17 0.20 0.20 0.24 0.21 0.21 0.20 0.20 0.19 0.17 0.18 0.23 0.21 0.17 0.21 0.21 0.17 0.16 0.16 0.17 0.20 0.16 0.15 0.18 0.20 0.23 0.25 0.27 0.27 0.25 0.26 0.25 0.26 0.25 0.26 0.26 0.26 0.27
0.51 0.49 0.48 0.47 0.45 0.43 0.42 0.42 0.44 0.45 0.44 0.45 0.46 0.44 0.45 0.41 0.41 0.41 0.41 0.37 0.27 0.17 0.17 0.17 0.18 0.20 0.27 0.23 0.29 0.30 0.30 0.31 0.30 0.29 0.28 0.29 0.30 0.29 0.28 0.26 0.26 0.24 0.24 0.23 0.20 0.21 0.22 0.19 0.18 0.23 0.24 0.25 0.22 0.20 0.25 0.25 0.24 0.20 0.18 0.18 0.22 0.19 0.19 0.20 0.17 0.17 0.16 0.20 0.21 0.23 0.23 0.22 0.22 0.22 0.23 0.25 0.27 0.27 0.25 0.24 0.24 0.24 0.25 0.26 0.27 0.26 0.26
0.49 0.48 0.48 0.47 0.44 0.42 0.41 0.42 0.44 0.45 0.46 0.44 0.44 0.42 0.43 0.45 0.45 0.44 0.43 0.43 0.38 0.29 0.25 0.23 0.25 0.21 0.14 0.19 0.28 0.28 0.29 0.30 0.28 0.28 0.27 0.28 0.28 0.29 0.27 0.28 0.26 0.27 0.27 0.26 0.25 0.24 0.22 0.22 0.25 0.22 0.21 0.28 0.23 0.19 0.21 0.17 0.17 0.14 0.15 0.19 0.21 0.23 0.24 0.23 0.23 0.23 0.23 0.24 0.24 0.25 0.24 0.21 0.22 0.24 0.25 0.25 0.27 0.27 0.25 0.25 0.26 0.26 0.26 0.28 0.28 0.28 0.27
0.50 0.49 0.48 0.46 0.44 0.41 0.40 0.41 0.43 0.45 0.47 0.44 0.39 0.35 0.30 0.34 0.45 0.43 0.44 0.43 0.40 0.35 0.24 0.18 0.14 0.16 0.25 0.26 0.24 0.27 0.27 0.28 0.27 0.26 0.25 0.26 0.27 0.27 0.28 0.28 0.27 0.28 0.27 0.25 0.25 0.20 0.23 0.23 0.24 0.25 0.26 0.30 0.21 0.21 0.17 0.18 0.16 0.15 0.18 0.20 0.23 0.24 0.25 0.25 0.27 0.24 0.22 0.25 0.25 0.25 0.25 0.24 0.25 0.25 0.25 0.26 0.27 0.27 0.25 0.25 0.27 0.28 0.28 0.30 0.29 0.29 0.30
0.50 0.48 0.47 0.45 0.43 0.40 0.39 0.39 0.41 0.44 0.47 0.42 0.35 0.26 0.24 0.21 0.34 0.47 0.46 0.45 0.44 0.35 0.28 0.25 0.18 0.22 0.19 0.26 0.27 0.23 0.26 0.27 0.25 0.24 0.23 0.24 0.24 0.24 0.26 0.26 0.27 0.26 0.22 0.23 0.22 0.22 0.23 0.19 0.20 0.21 0.25 0.26 0.24 0.20 0.18 0.16 0.14 0.14 0.18 0.20 0.22 0.22 0.23 0.24 0.26 0.27 0.27 0.26 0.26 0.27 0.26 0.24 0.25 0.25 0.24 0.24 0.26 0.27 0.27 0.26 0.28 0.30 0.31 0.31 0.31 0.31 0.31
0.49 0.47 0.45 0.43 0.42 0.40 0.38 0.37 0.40 0.44 0.44 0.39 0.33 0.29 0.31 0.34 0.40 0.46 0.47 0.46 0.44 0.33 0.25 0.18 0.16 0.16 0.16 0.20 0.24 0.27 0.26 0.26 0.24 0.22 0.21 0.22 0.20 0.22 0.21 0.22 0.20 0.24 0.22 0.20 0.22 0.21 0.19 0.20 0.19 0.20 0.19 0.27 0.25 0.20 0.19 0.16 0.14 0.13 0.19 0.20 0.23 0.24 0.25 0.25 0.25 0.26 0.27 0.29 0.28 0.24 0.22 0.23 0.26 0.24 0.22 0.26 0.28 0.29 0.28 0.28 0.29 0.31 0.32 0.32 0.33 0.34 0.34
0.48 0.45 0.43 0.42 0.41 0.39 0.38 0.36 0.39 0.42 0.41 0.45 0.49 0.52 0.51 0.49 0.49 0.49 0.49 0.47 0.39 0.32 0.30 0.22 0.16 0.18 0.17 0.17 0.23 0.22 0.25 0.23 0.21 0.19 0.17 0.20 0.17 0.18 0.17 0.20 0.20 0.20 0.31 0.21 0.19 0.18 0.21 0.19 0.20 0.17 0.21 0.28 0.21 0.20 0.17 0.14 0.15 0.19 0.22 0.23 0.24 0.24 0.24 0.26 0.27 0.28 0.28 0.29 0.31 0.25 0.23 0.25 0.27 0.30 0.30 0.30 0.30 0.29 0.29 0.30 0.31 0.33 0.32 0.32 0.32 0.33 0.34
0.45 0.43 0.41 0.40 0.39 0.38 0.39 0.41 0.44 0.45 0.48 0.41 0.34 0.38 0.42 0.46 0.47 0.46 0.46 0.41 0.34 0.33 0.30 0.22 0.17 0.15 0.15 0.23 0.18 0.20 0.25 0.19 0.18 0.18 0.14 0.19 0.20 0.18 0.16 0.16 0.19 0.14 0.21 0.17 0.20 0.19 0.22 0.21 0.16 0.18 0.21 0.20 0.23 0.19 0.13 0.15 0.20 0.22 0.24 0.24 0.25 0.25 0.25 0.26 0.27 0.28 0.30 0.32 0.37 0.37 0.36 0.36 0.36 0.35 0.33 0.31 0.30 0.33 0.35 0.34 0.34 0.33 0.32 0.32 0.32 0.33 0.35
0.44 0.41 0.40 0.39 0.39 0.42 0.45 0.45 0.42 0.37 0.33 0.36 0.37 0.41 0.46 0.48 0.47 0.47 0.43 0.36 0.26 0.23 0.23 0.24 0.23 0.15 0.14 0.14 0.14 0.18 0.25 0.21 0.17 0.18 0.15 0.17 0.21 0.16 0.17 0.14 0.16 0.13 0.14 0.26 0.19 0.19 0.16 0.16 0.20 0.14 0.13 0.19 0.17 0.14 0.16 0.19 0.21 0.23 0.23 0.22 0.24 0.25 0.25 0.25 0.27 0.30 0.34 0.39 0.40 0.39 0.38 0.38 0.35 0.33 0.32 0.33 0.33 0.35 0.34 0.34 0.35 0.34 0.31 0.31 0.33 0.34 0.36
0.43 0.41 0.39 0.40 0.42 0.46 0.44 0.41 0.38 0.34 0.32 0.32 0.34 0.43 0.48 0.49 0.46 0.45 0.43 0.41 0.33 0.24 0.21 0.20 0.21 0.16 0.15 0.11 0.11 0.18 0.25 0.19 0.20 0.19 0.19 0.18 0.16 0.20 0.17 0.16 0.12 0.16 0.20 0.17 0.13 0.15 0.14 0.22 0.17 0.12 0.17 0.14 0.14 0.16 0.19 0.23 0.22 0.22 0.23 0.23 0.25 0.27 0.27 0.28 0.29 0.32 0.37 0.39 0.39 0.38 0.37 0.37 0.35 0.33 0.34 0.34 0.34 0.34 0.34 0.33 0.34 0.36 0.35 0.34 0.34 0.36 0.38
0.42 0.40 0.39 0.40 0.44 0.38 0.33 0.33 0.39 0.36 0.33 0.38 0.42 0.45 0.47 0.45 0.46 0.44 0.41 0.36 0.39 0.38 0.25 0.21 0.17 0.16 0.17 0.16 0.19 0.22 0.21 0.14 0.19 0.16 0.17 0.15 0.13 0.17 0.16 0.15 0.13 0.17 0.15 0.14 0.13 0.12 0.15 0.25 0.17 0.14 0.15 0.14 0.16 0.21 0.24 0.25 0.24 0.23 0.23 0.25 0.28 0.31 0.31 0.32 0.34 0.35 0.36 0.36 0.36 0.35 0.35 0.34 0.33 0.34 0.33 0.33 0.34 0.36 0.36 0.35 0.36 0.35 0.33 0.34 0.36 0.38 0.40
0.42 0.40 0.36 0.33 0.32 0.29 0.26 0.30 0.32 0.38 0.43 0.43 0.45 0.38 0.37 0.37 0.28 0.31 0.31 0.27 0.32 0.32 0.28 0.27 0.18 0.20 0.25 0.20 0.14 0.22 0.21 0.17 0.19 0.15 0.15 0.18 0.14 0.14 0.17 0.15 0.15 0.17 0.11 0.12 0.13 0.18 0.18 0.17 0.15 0.14 0.16 0.20 0.23 0.25 0.26 0.26 0.26 0.27 0.27 0.29 0.31 0.33 0.33 0.34 0.35 0.34 0.33 0.31 0.30 0.32 0.33 0.33 0.33 0.35 0.34 0.34 0.35 0.35 0.35 0.37 0.38 0.39 0.39 0.40 0.41 0.43 0.44
0.40 0.37 0.33 0.32 0.27 0.25 0.24 0.28 0.40 0.43 0.41 0.42 0.41 0.30 0.26 0.33 0.28 0.22 0.22 0.26 0.28 0.22 0.27 0.23 0.18 0.23 0.21 0.19 0.18 0.27 0.21 0.16 0.15 0.16 0.13 0.18 0.15 0.12 0.16 0.11 0.14 0.15 0.12 0.12 0.13 0.20 0.13 0.13 0.14 0.16 0.15 0.20 0.21 0.24 0.26 0.26 0.26 0.27 0.30 0.33 0.35 0.35 0.36 0.36 0.38 0.36 0.34 0.32 0.33 0.34 0.33 0.31 0.31 0.32 0.35 0.35 0.36 0.37 0.38 0.39 0.40 0.41 0.42 0.43 0.43 0.46 0.47
0.36 0.30 0.29 0.29 0.26 0.28 0.36 0.40 0.43 0.39 0.36 0.28 0.32 0.27 0.21 0.27 0.20 0.18 0.28 0.20 0.19 0.24 0.25 0.18 0.24 0.23 0.23 0.19 0.17 0.17 0.27 0.20 0.14 0.13 0.14 0.15 0.22 0.13 0.16 0.14 0.16 0.14 0.10 0.10 0.12 0.20 0.13 0.10 0.13 0.14 0.14 0.19 0.21 0.24 0.24 0.25 0.25 0.28 0.32 0.35 0.36 0.38 0.38 0.38 0.39 0.40 0.39 0.38 0.39 0.38 0.38 0.38 0.37 0.36 0.36 0.36 0.36 0.36 0.38 0.39 0.41 0.42 0.42 0.42 0.43 0.44 0.44
0.34 0.33 0.32 0.28 0.31 0.35 0.36 0.40 0.41 0.36 0.29 0.25 0.24 0.25 0.23 0.19 0.24 0.25 0.23 0.19 0.17 0.18 0.27 0.23 0.25 0.22 0.25 0.23 0.23 0.17 0.23 0.25 0.22 0.21 0.18 0.14 0.20 0.18 0.15 0.12 0.17 0.12 0.11 0.11 0.15 0.15 0.14 0.13 0.14 0.13 0.15 0.19 0.20 0.22 0.24 0.24 0.26 0.31 0.35 0.37 0.38 0.39 0.40 0.40 0.39 0.39 0.39 0.38 0.38 0.38 0.39 0.38 0.38 0.38 0.39 0.38 0.38 0.39 0.40 0.41 0.41 0.42 0.42 0.43 0.43 0.44 0.45
0.37 0.36 0.37 0.41 0.40 0.39 0.38 0.35 0.30 0.26 0.26 0.27 0.19 0.16 0.19 0.20 0.23 0.23 0.23 0.16 0.16 0.18 0.21 0.25 0.19 0.19 0.18 0.20 0.20 0.22 0.22 0.25 0.21 0.20 0.17 0.13 0.20 0.15 0.13 0.14 0.17 0.11 0.09 0.14 0.15 0.14 0.14 0.11 0.12 0.13 0.17 0.19 0.22 0.24 0.25 0.25 0.29 0.33 0.35 0.38 0.39 0.39 0.40 0.39 0.38 0.39 0.40 0.38 0.38 0.39 0.39 0.39 0.39 0.40 0.40 0.40 0.41 0.42 0.42 0.43 0.43 0.43 0.43 0.44 0.45 0.44 0.44
0.45 0.44 0.42 0.36 0.34 0.30 0.31 0.22 0.27 0.24 0.17 0.17 0.17 0.14 0.18 0.16 0.18 0.17 0.18 0.22 0.25 0.21 0.21 0.28 0.25 0.25 0.25 0.26 0.21 0.23 0.19 0.23 0.19 0.18 0.16 0.14 0.20 0.18 0.14 0.13 0.12 0.10 0.12 0.15 0.13 0.12 0.11 0.11 0.11 0.14 0.18 0.19 0.22 0.24 0.25 0.29 0.34 0.36 0.37 0.39 0.40 0.41 0.40 0.38 0.38 0.38 0.39 0.39 0.40 0.40 0.39 0.39 0.39 0.40 0.43 0.44 0.44 0.44 0.44 0.45 0.44 0.43 0.43 0.43 0.43 0.43 0.44
0.40 0.39 0.32 0.30 0.25 0.26 0.25 0.15 0.25 0.20 0.17 0.18 0.15 0.13 0.15 0.15 0.17 0.19 0.18 0.19 0.21 0.20 0.23 0.20 0.20 0.19 0.17 0.24 0.19 0.18 0.20 0.20 0.23 0.19 0.17 0.19 0.16 0.13 0.13 0.11 0.11 0.14 0.16 0.12 0.12 0.10 0.11 0.13 0.15 0.16 0.18 0.20 0.23 0.25 0.28 0.32 0.36 0.38 0.39 0.40 0.41 0.41 0.40 0.38 0.39 0.39 0.38 0.40 0.41 0.42 0.42 0.42 0.42 0.43 0.46 0.45 0.44 0.42 0.42 0.43 0.43 0.42 0.41 0.40 0.39 0.38 0.39
0.30 0.27 0.26 0.23 0.19 0.22 0.19 0.13 0.21 0.16 0.12 0.14 0.17 0.16 0.17 0.15 0.17 0.19 0.18 0.24 0.23 0.21 0.23 0.23 0.22 0.21 0.19 0.22 0.21 0.21 0.20 0.15 0.22 0.16 0.14 0.16 0.13 0.14 0.12 0.12 0.14 0.13 0.11 0.09 0.10 0.11 0.12 0.12 0.15 0.17 0.19 0.20 0.23 0.26 0.30 0.35 0.37 0.38 0.38 0.39 0.39 0.39 0.39 0.38 0.39 0.39 0.39 0.39 0.41 0.42 0.42 0.42 0.42 0.42 0.44 0.44 0.44 0.43 0.41 0.39 0.39 0.39 0.38 0.38 0.37 0.37 0.38
0.27 0.24 0.22 0.17 0.15 0.20 0.17 0.14 0.16 0.14 0.16 0.18 0.18 0.19 0.19 0.20 0.21 0.20 0.25 0.27 0.24 0.24 0.22 0.23 0.23 0.22 0.19 0.22 0.17 0.16 0.18 0.18 0.15 0.16 0.17 0.16 0.12 0.11 0.14 0.16 0.14 0.11 0.10 0.10 0.09 0.08 0.10 0.12 0.15 0.17 0.20 0.22 0.24 0.28 0.32 0.36 0.38 0.40 0.38 0.36 0.37 0.38 0.39 0.39 0.39 0.39 0.40 0.41 0.42 0.43 0.42 0.43 0.42 0.41 0.40 0.41 0.40 0.40 0.40 0.39 0.39 0.38 0.38 0.37 0.37 0.37 0.38
0.28 0.30 0.25 0.22 0.17 0.19 0.20 0.15 0.15 0.17 0.19 0.20 0.22 0.22 0.22 0.23 0.24 0.24 0.26 0.27 0.24 0.25 0.25 0.25 0.24 0.22 0.19 0.18 0.18 0.18 0.19 0.19 0.14 0.17 0.17 0.13 0.12 0.13 0.16 0.11 0.09 0.10 0.08 0.08 0.08 0.10 0.11 0.14 0.16 0.18 0.21 0.23 0.26 0.29 0.34 0.36 0.38 0.37 0.37 0.38 0.38 0.39 0.40 0.39 0.40 0.40 0.41 0.43 0.43 0.42 0.42 0.41 0.41 0.41 0.40 0.39 0.38 0.40 0.40 0.40 0.40 0.40 0.39 0.38 0.38 0.39 0.39
0.24 0.29 0.26 0.17 0.15 0.17 0.16 0.18 0.22 0.23 0.25 0.24 0.24 0.25 0.26 0.27 0.24 0.23 0.26 0.28 0.27 0.26 0.24 0.23 0.21 0.21 0.19 0.23 0.20 0.16 0.16 0.18 0.14 0.15 0.16 0.14 0.15 0.12 0.11 0.10 0.10 0.11 0.11 0.09 0.10 0.12 0.14 0.16 0.17 0.19 0.22 0.25 0.28 0.30 0.34 0.36 0.37 0.37 0.37 0.38 0.39 0.39 0.39 0.39 0.40 0.41 0.42 0.42 0.42 0.42 0.41 0.41 0.41 0.40 0.39 0.39 0.39 0.40 0.41 0.40 0.40 0.41 0.41 0.41 0.41 0.40 0.40
0.33 0.28 0.22 0.20 0.21 0.21 0.20 0.23 0.22 0.20 0.23 0.25 0.26 0.26 0.25 0.24 0.23 0.24 0.27 0.29 0.27 0.25 0.26 0.23 0.21 0.20 0.17 0.20 0.17 0.15 0.14 0.17 0.12 0.13 0.15 0.14 0.11 0.10 0.09 0.07 0.08 0.08 0.11 0.12 0.12 0.14 0.15 0.17 0.20 0.21 0.23 0.26 0.30 0.33 0.35 0.36 0.37 0.36 0.38 0.38 0.39 0.40 0.40 0.40 0.41 0.42 0.43 0.43 0.43 0.43 0.42 0.42 0.42 0.41 0.40 0.40 0.39 0.40 0.42 0.42 0.41 0.41 0.41 0.40 0.39 0.38 0.36
0.30 0.27 0.29 0.25 0.22 0.23 0.25 0.24 0.22 0.20 0.22 0.24 0.24 0.24 0.25 0.24 0.24 0.25 0.30 0.27 0.28 0.27 0.27 0.26 0.26 0.21 0.19 0.18 0.14 0.15 0.13 0.16 0.15 0.15 0.12 0.11 0.12 0.12 0.11 0.08 0.09 0.09 0.11 0.13 0.14 0.15 0.17 0.19 0.21 0.22 0.25 0.28 0.31 0.35 0.35 0.36 0.36 0.36 0.38 0.40 0.41 0.42 0.41 0.41 0.41 0.42 0.43 0.43 0.43 0.43 0.43 0.43 0.42 0.40 0.39 0.39 0.40 0.41 0.42 0.41 0.40 0.39 0.38 0.37 0.36 0.34 0.31
0.35 0.29 0.27 0.30 0.23 0.21 0.23 0.19 0.19 0.19 0.20 0.22 0.23 0.24 0.25 0.24 0.25 0.25 0.30 0.29 0.28 0.26 0.23 0.20 0.20 0.19 0.18 0.16 0.15 0.11 0.13 0.17 0.14 0.13 0.12 0.11 0.14 0.12 0.10 0.09 0.10 0.12 0.13 0.15 0.17 0.18 0.18 0.20 0.22 0.23 0.26 0.29 0.33 0.36 0.36 0.36 0.35 0.35 0.36 0.38 0.40 0.42 0.42 0.42 0.42 0.42 0.43 0.43 0.43 0.43 0.42 0.42 0.42 0.41 0.41 0.42 0.41 0.41 0.39 0.39 0.38 0.37 0.36 0.34 0.32 0.28 0.24
0.28 0.24 0.24 0.27 0.29 0.28 0.27 0.26 0.26 0.24 0.24 0.25 0.25 0.27 0.28 0.25 0.27 0.28 0.32 0.30 0.27 0.23 0.20 0.22 0.20 0.18 0.17 0.13 0.14 0.15 0.17 0.15 0.13 0.13 0.12 0.13 0.15 0.12 0.11 0.11 0.12 0.13 0.15 0.15 0.16 0.18 0.19 0.21 0.24 0.25 0.28 0.30 0.34 0.36 0.36 0.36 0.35 0.35 0.35 0.35 0.36 0.38 0.40 0.41 0.42 0.42 0.42 0.42 0.43 0.42 0.42 0.43 0.43 0.43 0.42 0.41 0.40 0.38 0.36 0.34 0.35 0.33 0.30 0.26 0.23 0.22 0.21
Wind_Speed
19 19 19 19 19 19 19 19 19 20 19 17 16 16 16 16 17 18 18 18 17 16 16 17 15 15 16 16 16 16 17 17 16 17 16 16 16 16 16 16 16 16 15 15 15 15 16 16 16 16 16 16 17 18 18 18 17 17 17 18 18 17 17 17 19 19 19 20 20 18 17 17 17 18 18 18 18 18 18 19 19 19 19 18 18 19 21
19 19 20 20 19 19 19 19 19 19 18 17 17 16 15 16 18 18 17 17 17 16 17 17 16 17 17 16 17 17 17 17 17 17 18 18 17 17 17 17 17 17 16 16 16 17 17 16 16 16 16 17 18 18 17 17 17 17 18 18 18 18 18 17 18 19 19 19 19 19 19 18 18 19 19 19 18 18 19 20 19 20 21 20 20 21 22
20 20 20 20 20 20 20 20 20 19 19 18 17 16 16 16 16 16 16 15 14 15 16 16 16 17 17 17 18 18 18 18 18 18 18 18 18 18 19 19 18 18 17 17 17 18 18 18 18 17 17 18 19 19 18 17 17 18 18 18 18 18 19 18 18 18 19 19 19 19 19 19 19 19 19 19 18 18 20 20 19 21 22 21 22 22 23
20 20 20 20 20 20 20 20 20 20 19 18 16 15 15 15 15 16 16 14 13 14 15 15 16 17 16 17 18 17 18 19 18 18 18 18 18 18 19 19 18 18 18 18 19 19 19 19 18 18 19 19 20 20 19 18 19 19 18 18 18 18 19 19 19 20 21 20 21 20 19 20 21 21 21 21 20 19 19 20 21 22 22 23 25 23 22
20 20 20 20 20 21 20 20 20 20 20 18 16 15 15 14 14 15 15 15 14 14 15 15 16 17 16 17 17 17 17 18 18 18 18 18 18 18 19 19 18 19 18 18 19 20 20 20 19 19 20 20 20 21 20 19 19 19 18 18 17 17 20 20 20 21 22 21 22 21 20 21 22 22 23 23 22 20 20 22 23 22 22 25 27 24 24
20 20 20 20 20 20 20 20 20 20 20 18 15 15 14 14 14 14 15 16 16 15 16 16 16 17 17 17 17 17 17 18 18 19 19 18 18 18 19 19 19 19 19 19 19 20 20 20 20 20 20 20 20 20 19 19 19 18 18 19 17 17 20 21 20 22 23 22 22 22 21 23 23 23 24 24 23 23 23 24 24 22 24 27 27 24 26
20 20 20 20 20 20 20 20 20 20 19 17 14 14 14 14 14 15 15 16 16 17 17 17 16 17 17 17 17 17 18 18 19 20 19 19 19 18 19 20 20 20 19 18 19 20 20 20 20 20 20 20 20 20 20 19 19 18 18 19 18 19 21 21 20 22 23 23 23 23 22 23 24 25 26 25 24 25 26 26 25 25 28 29 27 27 29
20 20 20 20 20 20 20 20 20 20 18 15 13 13 14 14 14 15 15 15 16 17 17 17 16 17 17 18 18 18 18 18 20 20 19 19 20 19 18 20 21 19 18 18 19 20 20 19 21 20 20 20 20 20 20 21 20 20 19 21 20 20 22 21 20 22 24 23 23 23 23 24 26 26 26 25 25 26 26 26 26 26 29 30 28 30 31
21 20 20 20 20 20 20 20 20 20 17 14 12 13 13 14 14 15 15 15 16 17 17 16 16 17 18 18 19 19 19 18 19 20 19 18 19 20 19 20 20 19 19 18 20 21 20 20 21 21 20 21 21 21 21 21 21 21 21 21 21 21 22 22 21 23 25 24 24 25 24 25 28 29 27 26 26 26 26 26 25 26 27 29 29 30 30
21 21 20 20 20 19 19 19 19 19 17 14 13 13 14 14 15 15 15 15 16 16 17 17 16 17 18 18 19 19 20 19 18 19 19 18 18 19 20 19 19 19 19 19 21 23 23 23 23 22 22 22 22 22 22 21 21 21 21 21 22 21 22 22 22 24 26 24 24 24 24 25 28 28 27 27 27 27 27 27 26 26 26 27 28 29 28
21 21 20 20 20 19 19 19 19 18 16 14 13 14 14 14 15 15 14 15 16 16 16 16 16 17 18 18 19 19 20 20 19 18 19 19 18 18 18 18 19 20 20 21 22 24 24 24 24 23 22 23 23 23 22 22 22 21 20 21 22 21 22 23 22 23 25 25 23 22 23 25 26 25 23 24 24 25 26 26 26 26 25 26 27 26 25
21 21 21 20 20 19 19 19 18 17 16 15 14 14 15 14 14 14 14 14 16 15 15 15 16 16 18 18 18 19 19 20 20 19 20 20 20 19 18 18 18 20 21 22 23 23 23 23 23 23 22 23 23 22 22 22 23 22 21 21 22 21 21 22 22 22 24 23 21 21 24 25 24 23 22 22 21 21 23 25 24 24 25 25 25 25 25
21 21 21 20 20 19 19 18 18 17 16 15 14 14 15 14 14 14 13 14 15 15 15 16 16 16 17 18 18 19 19 20 20 20 19 20 20 19 19 19 20 22 23 23 23 22 22 22 22 22 23 22 22 22 22 22 23 22 22 21 21 20 20 21 21 21 22 21 19 21 24 24 23 23 22 21 20 20 21 23 23 23 23 24 24 24 24
21 21 20 20 20 19 19 18 18 17 16 15 14 14 15 15 14 14 14 14 15 16 16 16 17 17 18 18 18 19 19 19 19 19 19 20 20 20 21 21 23 24 23 23 22 21 21 21 21 21 22 21 21 21 22 21 21 21 21 21 21 20 19 20 20 21 20 20 21 23 24 25 24 22 21 21 21 20 20 21 22 22 22 22 22 23 23
21 21 21 21 20 20 19 19 18 18 17 16 15 15 16 16 15 15 15 15 16 16 16 16 17 18 19 19 18 18 19 19 19 20 20 20 20 21 22 22 24 24 23 22 21 20 20 21 21 21 21 20 20 20 20 20 20 20 20 20 19 19 19 19 20 20 19 20 21 22 22 22 22 21 21 20 20 20 20 19 20 21 21 20 20 20 21
22 21 21 21 21 20 20 20 19 19 18 17 16 16 16 17 16 16 16 16 16 17 17 16 17 18 19 19 19 18 19 20 20 20 21 21 21 22 22 23 23 23 21 21 20 20 20 21 21 20 21 20 20 20 20 20 20 20 19 18 18 18 19 18 18 20 19 19 20 20 20 21 21 21 21 20 19 19 18 18 19 20 20 19 19 19 20
22 22 21 21 21 21 20 20 20 19 19 18 17 16 17 17 17 17 17 17 17 18 18 18 17 18 18 19 19 19 19 20 20 20 20 21 21 22 22 22 22 21 21 20 20 20 20 20 20 20 21 21 20 20 20 19 19 20 20 19 18 18 19 18 19 20 20 20 21 21 21 21 21 20 21 20 19 17 16 17 19 20 20 20 19 19 20
22 22 22 21 21 21 20 20 20 20 19 19 17 17 17 18 18 17 17 17 17 18 19 18 18 18 17 18 19 20 20 20 19 19 20 20 20 21 22 21 21 21 21 20 19 19 19 19 20 20 20 21 19 19 20 19 18 19 18 18 18 19 19 18 19 19 20 20 21 22 22 22 21 22 22 21 19 18 18 19 20 21 21 21 21 21 21
22 22 22 22 21 21 21 21 20 20 20 20 18 17 17 19 19 18 17 17 17 18 19 19 19 18 17 18 19 19 19 19 19 19 19 19 19 20 21 20 19 20 20 19 19 19 19 19 20 19 19 20 19 18 19 19 18 18 18 18 18 18 18 18 18 18 19 20 21 21 22 21 20 21 21 20 18 19 20 21 22 22 22 22 22 23 23
22 22 22 22 21 21 21 21 21 21 21 20 19 18 18 19 19 18 18 18 18 19 19 18 17 17 17 18 18 18 18 18 18 18 18 18 19 19 18 18 18 19 18 18 18 19 18 18 19 18 18 19 18 18 18 19 19 18 18 18 18 17 18 19 19 19 20 20 20 20 20 20 19 19 20 19 19 21 22 23 23 23 23 23 23 24 24
22 22 22 22 22 21 21 21 21 21 21 21 20 19 19 19 19 19 19 18 18 19 19 17 17 18 19 19 18 18 18 18 18 18 18 18 18 16 16 17 18 17 16 16 16 17 17 17 18 17 17 18 18 18 18 18 19 19 18 18 19 19 20 20 20 20 19 19 19 19 19 19 19 20 21 21 22 24 25 25 25 24 24 24 24 25 25
22 22 22 22 22 21 21 21 21 21 21 21 20 20 19 20 20 20 19 19 19 19 19 19 19 20 19 18 17 17 18 18 17 17 17 17 17 15 15 16 16 16 15 15 15 16 16 16 17 17 18 18 19 19 19 19 20 21 20 20 20 21 20 20 21 21 21 22 23 23 23 24 23 24 25 26 26 27 27 26 27 27 26 26 26 27 27
22 22 22 22 21 21 21 20 21 20 20 21 20 19 19 20 19 19 18 18 18 19 19 18 18 17 16 16 16 17 17 16 16 16 15 15 16 15 15 16 15 15 15 15 15 15 15 16 16 17 18 18 18 19 19 20 21 21 21 21 22 22 22 22 23 24 24 25 26 26 26 27 27 26 27 28 29 29 28 27 28 29 29 29 29 30 30
21 21 21 22 21 21 20 20 20 20 20 20 19 19 19 18 18 17 16 16 16 17 16 16 15 14 14 15 16 15 15 15 15 15 15 15 15 15 15 15 15 15 16 16 16 15 15 16 16 17 17 18 18 18 19 20 20 20 21 22 23 23 22 22 23 24 25 25 25 24 26 27 28 28 29 30 30 29 28 28 29 30 30 31 31 31 32
21 21 21 21 20 20 19 19 19 20 20 20 19 18 18 17 16 16 15 15 15 15 14 14 14 13 14 15 15 14 14 15 15 16 16 16 16 16 16 16 16 16 17 17 16 16 16 16 16 17 18 18 18 18 19 20 20 20 21 22 22 21 21 22 23 24 24 25 26 27 28 29 29 29 29 29 29 29 29 30 30 31 31 31 32 32 32
21 21 21 20 20 20 19 19 19 20 21 20 19 18 17 16 15 15 14 14 14 13 13 14 14 14 15 15 14 13 14 15 16 16 17 17 17 18 18 18 17 17 17 17 17 17 17 16 16 17 18 18 18 18 19 20 20 20 21 21 21 21 22 22 22 23 24 25 26 26 27 28 27 27 27 27 28 29 30 30 30 31 31 32 32 32 32
21 21 20 20 20 20 19 19 20 21 21 20 19 18 17 15 15 14 14 14 13 13 13 14 15 15 14 13 13 13 14 14 15 16 16 17 17 18 18 18 17 17 16 16 17 16 16 16 17 17 18 18 19 19 20 20 20 20 21 20 19 20 21 21 21 23 24 24 24 25 25 26 27 27 27 28 28 29 30 30 31 31 31 32 32 32 32
21 21 20 20 20 20 20 20 20 21 21 20 19 17 16 15 14 14 14 14 13 12 13 14 15 15 13 13 13 13 13 13 14 14 14 14 15 15 16 16 16 16 15 15 15 15 15 16 17 17 18 18 19 19 19 19 19 20 20 19 18 20 21 21 21 23 24 25 27 27 26 27 28 28 28 28 28 29 31 31 31 31 31 31 31 32 32
21 21 20 20 21 21 21 21 21 20 20 20 18 16 15 14 14 13 13 13 13 13 13 14 13 12 12 12 13 13 12 13 13 13 13 13 12 13 14 14 14 15 15 15 15 15 16 16 17 17 18 18 18 19 19 19 19 20 20 20 20 22 23 23 24 25 26 28 29 29 28 29 30 29 29 29 29 30 31 31 31 31 30 30 30 31 31
22 21 21 21 22 22 21 21 20 20 19 19 17 15 14 14 14 13 13 13 13 13 12 11 11 11 11 12 12 12 12 12 12 12 12 12 12 12 13 13 13 14 14 14 15 15 16 16 17 18 18 18 18 19 19 19 20 21 21 21 22 23 24 25 26 27 28 29 29 30 31 32 31 31 31 30 30 30 30 30 29 29 29 29 29 29 29
23 23 23 23 23 23 21 20 19 19 18 17 16 14 14 13 13 13 13 13 13 12 11 10 10 10 10 10 10 11 12 11 11 11 11 11 12 12 12 12 13 13 14 15 15 15 16 17 17 18 18 18 18 19 19 20 21 21 21 21 23 24 25 26 27 28 29 30 31 31 32 32 31 30 30 30 29 29 29 28 28 28 28 28 27 27 27
24 24 24 24 23 22 21 19 18 18 17 16 15 14 13 13 14 14 13 13 12 10 9 9 9 8 8 9 9 10 10 10 10 11 11 11 12 13 13 13 14 14 14 15 16 16 16 17 17 18 18 18 18 19 19 20 21 22 22 23 24 25 25 26 27 27 28 28 29 29 29 29 28 28 28 28 27 27 27 27 26 26 26 26 25 25 25
25 25 25 24 23 21 20 18 17 16 16 15 14 13 13 14 14 13 12 11 10 9 8 7 7 7 7 8 9 10 10 10 10 11 12 12 13 14 14 14 15 15 15 15 16 16 16 16 17 17 18 18 18 18 19 20 20 21 22 24 24 25 25 26 25 25 25 25 25 25 26 27 27 26 26 25 25 24 25 24 23 23 22 22 22 22 21
26 25 25 23 21 19 18 16 15 15 15 14 13 13 14 14 13 12 10 9 9 8 7 7 6 7 8 8 8 9 11 11 12 12 13 13 14 15 15 15 15 15 15 15 15 16 17 17 17 17 18 17 17 18 19 19 20 21 23 23 23 24 24 23 22 22 22 22 22 22 23 24 23 23 22 22 21 20 20 19 19 18 18 18 18 18 18
26 25 24 22 19 17 15 15 15 15 15 14 13 13 14 13 12 10 10 9 8 8 7 7 7 7 8 9 9 11 12 13 13 13 13 14 15 15 14 14 14 14 15 15 15 16 17 16 16 17 17 17 17 17 18 18 20 21 22 22 22 22 21 20 19 19 19 19 19 19 19 19 18 17 17 17 16 15 14 14 15 15 15 15 15 15 15
25 24 22 20 17 15 14 15 15 14 14 14 14 14 14 12 10 10 9 9 8 7 7 7 7 7 8 9 10 12 14 14 14 14 14 14 15 15 14 14 14 14 15 15 15 16 16 15 15 16 16 15 16 16 16 17 19 20 20 21 21 20 19 18 18 18 17 17 16 16 15 14 13 13 12 12 12 12 12 12 12 12 12 12 12 12 11
25 23 21 18 16 15 15 15 14 15 16 16 16 14 12 10 10 10 9 9 8 8 7 7 8 8 9 10 11 13 14 14 14 15 15 15 15 15 15 14 14 15 15 15 15 15 15 14 14 15 15 15 15 15 15 16 18 19 19 19 19 17 17 17 16 16 15 15 14 13 12 12 12 11 10 10 11 10 10 10 9 9 9 9 9 8 7
24 22 19 17 15 15 15 15 15 17 17 16 14 11 10 10 9 9 9 9 9 9 8 8 9 10 10 11 12 13 14 14 15 15 15 15 15 15 15 14 15 15 16 16 15 14 14 15 14 14 14 14 13 13 15 16 17 18 18 18 17 16 15 14 13 12 12 12 13 12 12 11 11 10 10 10 9 8 7 7 7 6 6 5 4 3 1
23 20 18 17 16 16 15 17 18 18 16 13 11 10 10 9 9 9 9 9 9 9 9 9 10 10 10 11 13 14 14 15 15 15 15 15 15 15 15 15 15 15 15 15 15 14 14 15 14 13 12 12 11 13 15 17 17 18 17 15 15 14 13 12 10 10 10 11 12 12 11 11 11 10 9 9 8 7 6 4 4 3 2 1 0 1 2
22 20 18 18 17 17 17 18 18 15 12 11 11 11 10 9 9 9 9 10 10 10 10 10 11 12 12 12 14 15 15 15 16 16 16 16 15 15 15 15 15 15 14 14 14 14 14 14 13 11 10 10 12 15 17 17 17 17 15 13 13 13 11 9 8 9 9 10 11 11 11 10 10 9 8 7 6 5 3 1 0 0 1 3 3 3 4
21 20 18 18 18 18 18 17 15 13 11 11 11 11 10 10 10 9 9 10 10 11 11 11 12 13 13 13 14 15 16 16 16 16 16 16 15 15 15 15 15 14 14 14 15 14 13 12 11 9 9 11 14 16 17 17 17 16 14 12 11 9 7 7 8 9 10 11 11 11 11 10 8 7 6 4 2 1 1 3 3 4 4 5 5 5 6
22 21 19 19 18 18 17 15 13 12 12 12 11 11 11 10 10 10 10 10 11 11 12 11 12 13 14 14 14 16 16 16 16 15 15 16 15 14 14 15 15 14 14 15 15 14 12 10 10 9 10 13 15 16 16 16 16 14 12 10 8 6 6 7 8 9 10 10 10 9 8 7 5 3 2 2 3 4 5 5 5 6 6 7 7 7 8
23 21 19 18 17 16 16 14 13 13 13 12 12 12 12 11 11 11 11 11 12 12 12 12 13 14 14 14 15 16 17 16 16 16 15 15 15 15 15 15 14 14 15 15 14 12 10 9 9 9 11 14 15 15 15 15 13 11 8 6 5 6 7 7 8 8 9 9 8 6 5 4 3 4 6 7 8 8 8 7 7 8 8 9 8 9 9
22 20 18 17 16 15 15 14 13 13 13 13 12 12 12 13 12 12 12 13 13 13 13 14 14 14 14 15 16 17 16 16 16 15 15 15 15 15 14 14 14 15 15 14 12 10 9 9 9 10 12 13 13 14 14 13 11 8 7 5 5 6 6 7 7 7 7 6 5 4 4 6 8 9 9 10 10 9 9 10 10 10 11 11 11 11 11
20 19 18 17 16 15 14 14 14 14 13 13 13 13 12 13 13 13 13 14 14 14 15 16 14 14 15 16 16 16 16 16 15 15 15 15 15 14 14 14 14 15 14 13 11 10 10 9 9 11 12 12 12 13 13 11 8 6 6 5 5 5 5 5 6 6 5 4 5 7 8 9 10 10 10 10 11 12 12 12 12 12 12 12 12 12 13
19 18 17 16 15 15 14 14 14 14 14 14 14 14 13 14 14 14 15 15 15 16 17 16 14 14 16 16 16 16 16 16 15 14 14 14 14 14 14 14 14 14 13 12 11 10 9 9 10 10 11 11 12 12 11 8 5 5 5 5 5 4 4 5 6 7 6 6 8 9 10 10 10 11 12 12 13 14 14 13 13 13 13 13 13 13 13
18 18 17 16 15 15 15 14 14 15 15 15 15 15 15 16 16 16 16 16 16 16 16 15 14 15 15 15 15 16 16 15 14 14 14 13 13 14 14 14 13 12 11 11 10 10 10 10 10 11 11 11 11 11 9 6 4 4 6 5 4 4 4 5 6 7 8 9 10 10 10 11 12 13 14 14 14 14 14 14 14 14 13 13 13 14 13
18 18 17 16 15 15 15 15 16 16 17 17 17 17 17 18 17 17 16 15 15 16 15 15 14 15 15 15 15 15 15 15 14 14 13 13 13 14 14 13 13 12 11 9 9 9 10 10 11 11 10 10 10 9 7 4 2 4 5 5 4 3 4 5 6 7 8 10 10 11 11 12 13 13 14 14 14 14 14 14 14 13 13 13 14 13 13
18 17 17 16 16 16 16 16 17 18 18 18 18 18 18 18 18 17 16 15 15 16 16 15 15 15 15 15 15 15 15 14 14 14 13 13 13 13 13 12 13 13 11 9 9 10 11 11 11 10 10 9 9 7 5 3 2 3 4 4 2 2 4 5 6 7 8 9 10 11 11 12 12 13 13 13 13 12 12 12 12 12 12 13 13 13 12
18 17 17 17 16 17 17 17 17 17 18 18 19 19 19 18 18 17 16 15 16 16 16 15 14 14 14 15 15 15 15 14 13 13 14 14 13 12 12 12 12 12 11 10 10 11 12 11 10 10 9 9 7 5 3 3 2 2 2 2 2 2 4 5 6 7 8 9 10 11 11 11 12 12 12 12 11 11 11 11 11 11 11 11 11 11 11
18 18 18 17 17 17 17 18 18 17 18 19 20 19 19 18 18 17 16 16 17 16 15 15 14 14 14 14 15 14 14 14 13 13 14 13 12 11 12 12 12 11 12 12 12 12 12 11 10 9 8 7 6 4 3 3 2 2 1 2 2 3 5 6 6 7 8 9 10 10 10 10 10 11 11 10 10 9 9 9 9 9 9 9 9 10 9
18 18 19 19 19 19 19 19 19 19 19 19 20 19 18 18 18 17 17 17 16 16 15 14 14 13 14 14 14 14 14 14 14 14 14 13 12 11 12 12 12 13 13 13 13 12 11 10 9 9 8 7 5 4 4 4 3 2 1 0 2 4 6 6 6 6 7 8 9 9 9 9 9 9 9 9 8 8 7 7 7 7 7 7 8 8 8
Wind_Direction
321 320 319 317 316 315 314 313 311 310 307 299 292 287 280 274 271 273 278 278 273 270 269 271 271 267 266 268 264 263 263 264 265 267 268 268 268 269 270 268 268 270 270 270 270 272 273 272 272 273 273 273 274 279 285 282 278 279 277 276 275 274 274 274 273 273 271 270 271 270 268 265 264 266 266 262 262 261 258 258 260 259 258 259 262 267 267
320 320 319 317 317 315 314 313 311 310 307 299 292 286 279 276 273 272 279 280 271 266 265 267 268 268 269 271 269 266 264 263 265 266 267 267 267 268 270 268 269 271 271 271 270 271 274 274 275 274 273 273 277 284 289 284 279 278 276 274 274 274 273 273 275 277 276 275 273 273 272 269 266 267 267 264 262 262 262 262 262 262 260 256 259 265 265
321 320 320 318 317 316 315 313 311 309 306 300 291 284 280 278 274 272 279 283 273 264 264 263 264 268 271 270 270 269 267 266 267 266 267 268 266 268 271 271 272 273 273 275 275 274 274 275 276 277 276 276 279 285 289 286 281 279 278 276 275 273 271 269 269 269 268 269 269 267 267 267 267 267 267 266 263 260 261 262 261 262 262 258 257 264 267
323 322 322 320 319 318 316 315 312 309 308 302 291 284 281 278 275 275 279 282 275 268 269 268 266 267 270 270 269 269 269 271 271 268 268 269 269 270 272 273 274 275 274 274 276 276 276 276 276 276 277 276 277 281 283 284 285 283 284 283 277 273 273 268 264 263 263 264 265 264 264 265 266 267 266 265 264 261 261 261 259 259 261 261 258 262 267
325 324 324 322 321 319 318 316 314 311 310 304 291 285 283 277 275 275 276 277 276 272 274 274 270 267 266 266 268 269 270 272 273 271 270 270 271 271 273 274 271 270 271 271 272 274 277 277 274 274 275 274 276 279 279 282 287 285 284 284 278 274 274 270 265 265 265 265 266 267 267 265 264 264 264 264 264 262 260 259 260 260 261 264 262 260 263
327 326 325 324 323 322 321 319 316 313 311 304 292 285 284 279 275 274 274 273 272 272 275 275 272 269 266 265 268 271 272 272 272 272 273 273 273 271 272 274 273 270 270 271 272 274 277 277 275 274 276 276 278 280 278 280 285 284 282 282 278 272 272 271 268 269 270 270 269 269 268 268 267 264 263 264 262 259 259 259 260 258 259 264 264 261 261
328 327 327 327 326 325 324 322 320 318 313 304 295 287 284 281 277 277 277 274 270 271 274 274 272 271 270 269 270 272 273 273 271 270 272 274 274 271 269 272 275 275 273 271 271 273 273 275 275 273 275 277 278 279 278 277 282 282 280 279 277 273 273 271 270 273 273 271 270 269 268 269 269 266 264 264 262 259 260 261 261 259 261 265 266 263 263
328 327 327 327 327 326 326 325 324 322 315 305 299 294 288 284 280 280 280 277 274 274 275 274 272 273 275 273 273 273 273 274 274 271 270 271 272 272 269 269 272 274 274 271 271 270 268 271 274 272 275 279 277 276 275 274 279 281 277 276 277 275 274 273 272 274 274 272 271 269 266 266 268 267 266 266 265 263 262 263 263 262 264 266 266 266 267
328 328 327 327 327 326 326 326 326 325 319 307 301 299 293 286 282 282 280 278 278 278 276 275 273 275 277 275 275 276 274 275 275 271 269 269 270 272 270 268 270 274 274 273 274 274 270 269 271 270 272 276 275 276 275 274 277 279 275 274 276 275 274 275 276 275 273 272 272 272 272 271 270 268 267 265 265 264 263 263 262 261 263 266 266 267 268
329 329 328 327 327 326 326 326 326 326 321 310 303 301 297 291 286 284 280 277 280 279 277 277 275 274 276 276 275 275 274 276 276 271 271 274 275 273 271 269 271 274 274 274 277 279 275 271 272 272 273 275 275 276 276 274 275 276 274 275 275 273 273 274 274 273 273 274 273 273 277 276 272 270 267 264 263 263 264 265 264 261 261 264 265 265 267
329 328 328 327 327 327 327 327 327 326 322 314 305 302 301 296 289 287 284 279 280 281 278 279 278 275 277 279 277 275 276 279 278 272 271 275 277 276 274 274 272 271 272 275 278 278 275 273 275 275 275 278 278 277 277 276 275 274 273 275 276 273 272 272 271 271 274 276 276 276 275 272 272 274 271 265 264 264 263 264 265 263 263 264 265 267 267
329 328 328 327 327 327 327 327 327 326 323 315 308 304 303 298 290 289 287 281 281 283 281 278 278 277 280 281 279 276 276 278 278 273 270 272 277 278 278 277 274 271 274 279 280 278 275 275 277 278 279 281 281 280 279 279 278 276 272 271 274 273 270 271 271 270 272 275 276 275 272 271 275 279 275 270 269 267 264 266 268 267 266 266 267 267 265
330 329 328 328 328 327 327 328 327 326 323 317 312 310 307 302 294 290 287 282 281 283 282 280 280 280 281 282 281 278 277 278 279 275 271 272 276 279 279 277 274 275 278 281 280 278 276 276 278 279 279 282 283 281 279 277 277 277 273 269 269 270 269 269 270 269 270 271 268 267 272 276 280 281 278 275 275 272 270 271 273 271 266 265 266 266 264
330 330 329 329 328 327 327 328 328 326 324 318 313 311 309 306 300 294 290 285 283 282 281 282 284 284 284 284 283 281 281 283 283 279 275 275 276 277 278 278 278 278 279 278 278 277 276 276 278 279 279 281 282 280 278 276 274 274 274 271 268 268 269 270 270 269 268 267 266 269 276 280 281 279 277 275 274 272 270 269 270 270 266 264 266 268 267
330 329 329 328 328 327 325 326 326 325 323 318 312 309 309 308 302 295 291 287 285 284 283 282 283 283 283 283 283 283 283 283 282 280 278 277 276 277 279 279 280 280 278 276 276 275 274 275 276 277 277 277 277 277 278 278 276 275 276 274 270 269 269 268 268 270 269 269 271 274 276 276 276 275 275 273 270 269 268 267 268 269 267 265 266 268 267
328 328 328 327 326 326 324 323 324 323 322 318 311 307 309 308 302 297 293 289 286 285 283 282 282 281 282 282 283 283 282 280 280 280 279 280 280 280 281 281 280 280 280 278 276 275 274 273 272 273 273 272 273 275 276 277 277 278 280 280 277 275 273 270 268 270 270 268 270 271 271 272 273 274 275 274 271 268 269 270 268 267 268 268 266 267 267
328 327 327 326 326 325 324 322 322 321 321 318 312 307 307 308 303 298 295 291 289 285 283 284 285 284 282 283 283 282 281 280 279 279 278 279 280 282 284 284 281 281 281 279 276 275 274 272 271 272 272 272 273 274 274 275 275 277 279 280 279 278 278 275 270 270 270 268 269 271 271 272 273 273 274 276 272 268 269 270 268 267 269 268 264 265 267
327 327 326 326 325 325 324 322 321 320 319 317 312 306 305 307 305 300 295 293 290 287 284 285 287 285 283 283 282 281 282 282 281 280 279 279 280 282 283 283 281 281 281 277 274 274 273 271 271 271 272 274 274 273 274 274 273 273 274 275 276 277 277 275 271 270 270 268 270 273 273 272 272 272 273 274 271 267 265 264 265 268 270 269 265 264 266
327 326 326 325 325 324 323 322 320 319 318 317 313 306 304 307 307 302 297 294 291 288 287 287 285 282 283 286 284 282 283 283 281 282 281 280 281 283 282 280 280 280 280 276 273 273 273 273 273 272 272 275 274 273 273 273 271 272 275 275 275 274 274 274 272 271 271 269 271 274 275 273 271 271 273 273 270 266 265 265 267 268 270 271 270 268 268
327 326 325 325 324 323 322 321 320 318 317 316 313 307 303 305 305 302 298 294 291 290 290 288 283 280 284 288 286 283 284 284 282 282 280 278 282 287 284 279 281 282 280 277 275 274 273 274 274 273 273 273 273 273 274 273 272 272 273 273 272 271 272 274 273 272 273 272 272 274 274 271 269 271 274 275 271 269 271 273 272 271 271 273 274 273 272
326 326 325 324 323 322 321 320 319 318 317 315 313 308 304 303 303 301 296 292 290 289 289 288 285 284 285 286 283 282 282 281 281 281 280 279 283 286 280 277 279 280 278 275 274 274 273 273 274 274 273 273 274 274 274 275 275 273 271 273 274 272 272 274 274 273 273 270 268 268 268 267 268 271 272 273 274 276 277 276 273 272 274 275 275 274 274
327 327 327 326 325 324 322 321 320 319 318 316 314 310 307 305 304 303 298 293 289 287 287 288 287 287 285 283 282 283 281 278 279 280 278 280 283 282 278 278 280 278 276 276 276 276 276 276 276 276 275 275 275 275 275 275 276 275 275 275 275 273 272 272 272 271 270 268 267 269 270 271 272 271 270 272 276 278 277 274 272 272 273 274 276 276 275
328 329 329 328 327 326 325 324 324 323 321 320 317 314 311 309 308 307 302 297 293 291 290 290 289 288 287 285 286 286 281 278 279 278 276 279 282 281 279 279 280 279 278 277 276 276 276 277 278 278 278 276 276 277 278 277 276 276 277 275 275 275 275 273 273 274 274 272 271 271 272 273 273 272 271 274 276 276 275 274 274 273 273 274 275 275 275
329 329 330 330 329 329 328 328 328 328 327 326 322 319 316 313 312 311 308 303 300 297 294 292 290 289 290 291 290 287 282 278 279 279 277 276 278 282 282 279 278 281 280 277 277 277 279 280 280 280 279 278 277 278 278 278 277 277 279 280 280 279 278 275 274 276 276 275 274 273 273 273 274 274 275 276 276 275 274 275 275 275 275 276 275 275 275
329 330 331 331 331 331 331 331 332 332 331 330 327 324 321 317 316 315 312 307 304 300 296 293 290 290 294 295 292 287 284 282 282 281 279 275 274 277 281 280 279 280 280 279 279 279 279 280 280 280 279 278 278 279 278 279 280 279 280 282 282 281 281 279 276 274 274 274 276 277 277 276 276 275 275 276 276 274 274 275 276 276 276 276 276 276 276
330 330 331 331 331 331 331 331 332 332 332 330 329 327 323 320 318 317 315 311 306 301 298 295 293 296 299 298 292 289 289 288 286 283 280 278 275 275 277 280 282 281 281 282 281 278 278 280 280 280 280 279 278 279 279 280 281 281 281 282 280 280 281 280 278 277 278 277 278 280 279 278 278 277 276 275 274 274 275 276 277 277 277 277 277 276 276
331 331 330 330 330 331 330 330 331 332 331 331 330 328 324 321 319 318 319 317 311 304 299 297 296 300 301 297 294 295 295 293 290 287 283 280 278 276 277 278 281 281 281 283 282 279 280 283 282 281 281 281 281 281 281 282 282 282 283 283 282 281 281 280 280 280 279 278 279 280 280 279 279 280 279 276 275 276 276 277 277 277 277 277 277 277 277
332 332 331 330 330 330 329 329 330 331 331 331 330 329 327 324 322 318 318 319 315 305 298 297 299 301 301 298 298 299 299 299 299 296 292 288 284 281 279 279 280 280 280 281 283 282 282 283 283 283 284 284 283 284 285 285 285 284 284 283 281 279 279 278 278 279 278 278 280 280 279 278 279 281 280 278 278 278 277 277 278 277 277 277 277 278 278
334 332 331 330 330 329 328 327 329 331 332 331 331 329 327 327 326 323 320 320 317 311 305 303 302 301 299 300 302 302 303 305 306 303 300 297 291 286 284 283 282 281 280 281 283 284 283 282 282 283 284 284 284 286 286 286 285 284 283 282 280 280 280 279 280 280 281 282 283 282 280 280 280 281 280 279 279 279 278 278 278 278 278 277 277 278 279
335 333 331 329 329 328 326 325 327 330 332 333 332 330 328 327 327 326 324 322 320 317 313 307 303 301 301 303 306 308 309 309 310 309 306 303 298 293 291 289 288 286 285 285 285 285 286 285 285 285 285 284 285 287 287 286 285 286 287 287 287 287 286 285 284 285 285 285 285 285 283 281 281 281 280 279 278 278 278 279 279 278 278 278 279 279 280
335 333 331 329 328 327 325 323 325 328 332 333 334 332 330 328 326 325 324 323 322 321 318 311 305 305 307 308 310 313 314 313 314 314 310 306 305 303 299 297 295 292 289 288 287 287 288 287 287 288 287 285 285 286 287 287 287 288 290 292 291 290 289 289 288 288 287 288 288 286 284 282 281 280 279 278 278 277 278 278 278 278 278 278 279 280 280
335 333 331 329 327 326 325 323 324 327 330 332 333 332 330 328 325 323 322 324 324 324 324 321 316 313 313 314 317 320 320 319 321 320 315 310 311 309 305 302 299 296 293 291 291 291 290 289 289 290 289 286 286 288 289 288 288 289 292 294 294 293 292 292 291 290 290 290 290 288 286 284 281 279 279 280 279 278 278 278 278 277 278 279 280 280 280
335 333 332 330 328 327 326 324 325 326 328 330 331 331 330 330 329 327 327 329 330 330 331 332 330 323 319 320 323 327 328 325 323 322 318 313 312 310 306 304 303 299 296 294 293 293 294 293 292 292 291 289 289 291 291 289 288 291 295 297 297 296 296 294 293 292 292 292 291 288 287 286 283 281 280 281 280 278 277 277 278 278 278 279 280 280 281
336 335 333 332 330 329 329 330 330 330 330 331 330 329 331 332 332 333 336 337 337 337 339 342 339 329 325 325 324 327 330 327 322 321 318 315 315 312 307 305 306 303 299 298 297 298 299 297 295 295 294 293 293 294 293 291 292 295 298 299 299 299 298 296 294 295 296 296 294 292 291 290 286 282 281 281 280 278 277 277 277 278 278 278 279 280 281
337 336 335 334 334 334 335 337 337 334 333 333 330 328 330 332 333 335 336 337 338 338 337 339 338 332 331 330 324 324 328 327 321 319 317 315 316 315 310 308 309 306 303 302 303 303 301 299 298 297 296 296 296 294 292 293 296 299 300 300 301 301 300 297 297 299 300 300 300 300 299 297 291 284 281 281 281 280 279 279 278 278 279 280 280 280 281
338 337 337 336 337 337 338 338 338 337 336 333 329 327 328 330 331 333 334 335 337 335 332 335 337 334 334 330 322 322 328 328 323 320 319 317 318 318 316 314 312 308 307 308 308 305 303 301 301 301 300 298 295 293 293 297 300 302 302 302 303 303 301 298 298 301 303 306 309 308 306 304 300 293 287 284 283 282 282 282 282 282 282 283 283 282 281
338 338 338 338 338 338 336 335 336 335 333 330 327 326 327 329 331 333 334 335 336 334 333 334 332 329 330 329 324 325 328 328 325 324 322 320 319 319 318 317 313 311 313 314 310 306 305 305 305 304 301 298 295 295 298 303 305 305 306 306 306 305 302 299 300 302 305 311 315 314 310 308 307 302 297 294 291 288 286 284 283 283 283 285 287 286 278
339 339 340 340 340 339 336 333 331 331 331 331 331 332 332 332 333 332 333 334 333 331 332 331 327 326 328 328 326 327 327 327 329 328 324 322 322 321 320 319 315 313 314 313 309 308 309 311 310 306 301 299 300 302 305 307 308 309 309 309 307 305 302 301 302 305 310 316 318 316 313 310 308 305 303 300 296 292 289 284 280 279 281 282 287 289 254
341 341 341 342 341 339 335 331 330 330 331 333 336 334 332 331 332 330 330 331 330 327 327 326 323 323 324 324 325 327 327 329 331 329 325 324 324 322 321 320 317 317 318 315 313 313 313 312 312 309 304 302 306 310 312 313 313 313 311 309 306 304 302 301 304 309 313 316 317 316 314 310 306 304 302 298 294 295 294 287 278 276 272 257 143 87 104
344 343 342 340 339 337 334 332 331 332 333 334 335 334 331 329 326 324 325 328 327 323 321 322 322 322 321 321 324 327 327 327 327 326 325 324 323 322 322 321 319 320 320 316 315 317 316 312 311 310 304 302 309 315 318 318 317 315 312 309 306 305 304 304 308 312 315 315 315 316 316 312 306 303 300 296 292 290 284 265 230 172 135 121 107 99 103
345 342 340 338 337 335 335 335 336 336 335 334 334 334 331 325 321 321 325 326 322 318 318 321 323 323 322 320 320 323 325 325 325 326 326 324 323 324 324 322 321 323 320 315 317 321 319 313 310 306 301 306 315 319 321 321 319 317 314 310 308 308 309 312 314 316 319 319 317 318 319 318 313 308 305 302 292 249 152 120 102 98 104 107 106 104 104
340 337 334 334 335 336 337 338 339 339 337 335 332 330 327 322 320 320 321 319 317 317 318 319 319 320 320 320 320 322 325 326 326 328 328 325 324 325 326 325 326 325 318 315 320 324 320 312 306 301 304 313 320 323 324 325 324 322 318 312 310 313 318 320 321 322 323 323 324 325 326 327 328 332 354 76 102 106 107 105 104 102 100 101 105 106 103
337 336 335 336 337 339 340 339 339 339 338 336 332 329 326 323 321 319 317 315 316 318 318 317 318 320 321 321 322 324 325 325 325 327 326 325 325 328 329 328 326 323 319 321 326 324 316 307 301 299 307 319 325 328 329 330 331 330 326 318 316 323 327 326 326 326 327 329 332 337 345 4 38 73 94 100 100 99 99 99 101 102 99 99 104 106 104
338 338 337 336 337 338 338 338 338 338 337 335 332 329 324 320 318 317 315 315 315 315 315 315 317 320 320 322 324 325 325 325 326 326 326 325 327 329 328 324 322 322 324 326 326 319 311 305 299 300 310 321 328 332 334 335 337 339 340 336 333 335 336 336 336 336 337 343 357 24 56 75 84 92 96 96 94 94 95 95 97 99 99 100 103 105 105
339 338 338 337 335 336 335 335 335 336 334 332 331 329 323 317 312 311 311 311 311 313 314 313 312 314 317 321 324 325 325 326 326 325 325 327 328 327 324 322 325 328 329 327 323 319 314 308 303 305 313 321 328 333 335 335 337 342 347 347 346 345 347 352 359 3 11 34 60 75 84 88 89 93 95 94 92 93 96 98 100 102 101 101 103 104 105
337 337 338 337 334 333 334 333 332 332 332 330 329 327 323 316 310 308 309 310 310 311 312 311 311 313 316 320 323 324 325 326 326 324 326 329 327 323 323 325 329 332 332 326 320 316 310 304 303 308 314 321 328 331 331 332 339 349 349 348 350 357 6 15 24 35 56 79 88 91 93 92 93 97 101 100 98 97 98 100 102 102 101 102 104 104 104
333 334 336 335 331 330 331 329 326 326 327 327 325 323 321 318 313 310 309 309 310 311 311 310 310 313 316 318 321 323 324 326 325 323 325 327 325 324 327 329 328 328 328 321 313 309 307 305 305 309 314 321 328 329 327 327 346 357 352 348 352 4 21 37 48 60 75 88 94 97 99 98 99 102 103 101 98 99 100 101 101 101 102 102 102 101 101
329 330 332 331 328 327 326 325 324 324 323 323 323 322 322 321 318 313 310 310 312 314 312 309 310 314 317 319 321 322 324 325 324 322 323 326 325 326 329 329 326 325 324 316 307 306 307 306 305 308 312 319 326 327 320 312 330 351 353 355 2 19 44 66 79 85 89 93 98 102 104 104 104 105 104 102 100 100 102 102 100 99 100 100 98 97 97
325 326 326 326 325 322 320 321 323 322 320 321 322 322 321 321 318 314 312 311 313 313 311 308 308 310 313 317 321 322 322 323 323 323 325 326 324 323 325 325 324 324 323 315 307 306 307 305 304 306 310 317 323 321 306 279 296 341 352 358 12 47 72 85 95 101 102 102 104 107 108 109 110 111 109 106 103 101 101 102 100 98 98 98 96 95 95
322 322 320 321 322 321 320 321 322 321 319 320 320 320 320 320 318 315 313 313 313 313 312 309 307 308 312 317 322 322 320 318 320 322 323 322 320 322 323 321 319 319 318 312 308 308 307 304 302 302 307 315 319 309 275 246 266 323 353 13 45 89 96 94 99 109 115 115 115 113 112 113 115 115 112 109 106 101 99 99 98 96 95 95 94 93 93
320 319 317 316 316 316 317 319 319 318 317 317 317 317 318 318 316 313 312 312 312 313 311 307 307 311 315 317 318 318 318 318 319 319 319 318 320 322 321 317 314 314 313 311 310 309 307 302 295 295 301 309 308 282 240 224 240 278 335 43 80 113 119 110 106 112 120 122 121 120 118 118 118 117 115 113 110 104 100 99 98 96 95 94 93 93 92
316 316 315 314 312 311 311 312 313 313 313 313 314 315 316 315 313 312 311 310 308 307 305 304 306 310 311 311 312 315 317 318 317 316 315 316 317 318 315 311 310 311 311 310 310 309 305 297 289 287 292 294 282 250 224 214 220 236 243 113 105 123 132 131 126 125 127 127 126 126 126 126 127 126 123 119 114 110 109 108 106 103 100 97 93 92 90